Home > Weather > Dundalk > Past weeks

Flag for Ireland Past Weather in Dundalk, Ireland — Yesterday and Last 2 Weeks

Now
66 °F

Mild.


Feels Like: 66 °F
Forecast: 54 / 65 °F
Wind: 5 mph from Southwest

Location: Glenanne

Current Time: Jul 23, 2016 at 8:20:55 PM

Latest Report: Jul 23, 2016 at 7:00 PM


Visibility: 28 mi

Pressure: 30.02 "Hg

Humidity: 80%

Dew Point: 59 °F

Location of DundalkLocation

Past Weather in Dundalk — Graph

°F

Dundalk Temperature Yesterday

Maximum temperature yesterday: 58 °F (at 11:00 PM)
Minimum temperature yesterday: 58 °F (at 11:00 PM)
Average temperature yesterday: 58 °F

High & Low Weather Summary for the Past Weeks

 TemperatureHumidityPressure
High76 °F (Jul 19, 5:00 PM)100% (Jul 9, 10:00 AM)30.28 "Hg (Jul 9, 10:00 AM)
Low47 °F (Jul 13, 5:00 AM)49% (Jul 17, 5:00 PM)29.35 "Hg (Jul 10, 8:00 PM)
Average60 °F85%29.94 "Hg
* Reported Jul 8 7:00 PM — Jul 23 7:00 PM, Dundalk, Weather by CustomWeather, © 2016

Note: Actual official high and low records may vary slightly from our data, if they occured in-between our weather recording intervals... More about our weather records

Advertising

Dundalk Weather History for the Previous 24 Hours

Scroll right to see more
 ConditionsComfort  
Time TempWeatherWind HumidityBarometerVisibility
7:00 PM
Sat, Jul 23
66 °FMild.5 mph80%30.02 "Hg28 mi
6:00 PM64 °FMild.5 mph94%30.03 "Hg14 mi
5:00 PM63 °FMild.8 mph88%30.03 "Hg19 mi
4:00 PM62 °FCool.8 mph84%30.04 "Hg25 mi
3:00 PM63 °FRain showers. Cloudy.9 mph81%30.04 "Hg22 mi
2:00 PM64 °FMild.14 mph73%30.04 "Hg28 mi
1:00 PM64 °FMild.14 mph80%30.04 "Hg22 mi
12:00 PM64 °FMild.13 mph80%30.04 "Hg19 mi
11:00 AM62 °FCool.9 mph80%30.06 "Hg22 mi
10:00 AM59 °FRain showers. Cloudy.7 mph90%30.06 "Hg25 mi
9:00 AM58 °FCool.7 mph91%30.08 "Hg19 mi
8:00 AM58 °FCool.8 mph94%30.07 "Hg19 mi
7:00 AM57 °FCool.6 mph96%30.06 "Hg13 mi
6:00 AM57 °FCool.5 mph95%30.07 "Hg15 mi
5:00 AM56 °FCool.2 mph94%30.08 "Hg15 mi
4:00 AM58 °FCool.6 mph91%30.09 "Hg19 mi
3:00 AM58 °FCool.6 mph91%30.10 "Hg25 mi
2:00 AM57 °FCool.3 mph92%30.10 "Hg22 mi
1:00 AM58 °FCool.5 mph90%30.11 "Hg22 mi
12:00 AM58 °FCool.3 mph88%30.10 "Hg28 mi
11:00 PM
Fri, Jul 22
58 °FCool.3 mph88%30.11 "Hg25 mi
10:00 PMN/A2 mphN/AN/A25 mi
9:00 PMN/A2 mphN/AN/A28 mi
8:00 PMN/A2 mphN/AN/A28 mi
Weather by CustomWeather, © 2016

See weather overviewHow to use our weather pages